W5SDC Weather Reports


Display with metric or nautical units.
time (UTC)temp
F
wind
direction
speed
MPH
gust
MPH
rain 1hr
in
rain 24hr
in
rain mn
in
humidity
%
barometer
mb
20260831005524 91 152 3.0 4.0 0.00 0.00 0.00 49 1014.3
20260831005050 92 135 5.0 7.0 0.00 0.00 0.00 48 1014.2
20260831004519 92 134 4.0 6.0 0.00 0.00 0.00 48 1014.2
20260831004025 93 131 5.0 8.0 0.00 0.00 0.00 47 1014.2
20260831003532 93 141 6.0 10.0 0.00 0.00 0.00 46 1014.2
20260831003019 93 143 6.0 8.0 0.00 0.00 0.00 46 1014.2
20260831002526 94 126 6.0 10.0 0.00 0.00 0.00 45 1014.1
20260831002033 95 138 5.0 7.0 0.00 0.00 0.00 45 1014.1
20260831001541 95 139 6.0 8.0 0.00 0.00 0.00 44 1014.2
20260831001028 96 136 5.0 6.0 0.00 0.00 0.00 44 1014.2
20260831000516 97 140 5.0 7.0 0.00 0.00 0.00 42 1014.2
20260831000022 96 165 5.0 8.0 0.00 0.00 0.00 43 1014.2
20260830235529 97 157 4.0 8.0 0.00 0.00 0.00 42 1014.2
20260830235037 97 172 4.0 7.0 0.00 0.00 0.00 42 1014.2
20260830234524 96 180 4.0 6.0 0.00 0.00 0.00 42 1014.2
20260830234030 97 185 6.0 9.0 0.00 0.00 0.00 42 1014.2
20260830233518 97 193 5.0 7.0 0.00 0.00 0.00 42 1014.2
20260830233025 98 207 4.0 7.0 0.00 0.00 0.00 42 1014.2
20260830232532 97 214 5.0 8.0 0.00 0.00 0.00 42 1014.2
20260830232019 98 160 5.0 7.0 0.00 0.00 0.00 42 1014.2
20260830231526 97 170 3.0 5.0 0.00 0.00 0.00 42 1014.3
20260830231033 97 175 3.0 5.0 0.00 0.00 0.00 42 1014.3
20260830230521 97 123 4.0 7.0 0.00 0.00 0.00 42 1014.3
20260830230027 97 139 4.0 7.0 0.00 0.00 0.00 42 1014.4
20260830225516 97 176 7.0 10.0 0.00 0.00 0.00 42 1014.4
20260830225022 97 148 5.0 7.0 0.00 0.00 0.00 42 1014.4
20260830224529 97 164 6.0 8.0 0.00 0.00 0.00 42 1014.4
20260830224017 97 169 4.0 6.0 0.00 0.00 0.00 43 1014.4
20260830223523 97 161 5.0 9.0 0.00 0.00 0.00 42 1014.5
20260830223030 97 150 5.0 9.0 0.00 0.00 0.00 42 1014.5
20260830222518 97 128 6.0 11.0 0.00 0.00 0.00 43 1014.5
20260830222045 97 184 6.0 8.0 0.00 0.00 0.00 44 1014.5
20260830221531 97 185 5.0 8.0 0.00 0.00 0.00 44 1014.5
20260830221020 97 146 5.0 7.0 0.00 0.00 0.00 44 1014.6
20260830220526 97 126 6.0 8.0 0.00 0.00 0.00 43 1014.6
20260830220032 97 158 6.0 10.0 0.00 0.00 0.00 44 1014.6
20260830215541 97 158 7.0 9.0 0.00 0.00 0.00 44 1014.6
20260830215027 98 132 6.0 9.0 0.00 0.00 0.00 44 1014.7
20260830214516 97 165 6.0 8.0 0.00 0.00 0.00 45 1014.8
20260830214022 96 177 7.0 10.0 0.00 0.00 0.00 45 1014.8
20260830213549 97 131 7.0 11.0 0.00 0.00 0.00 45 1014.9
20260830213017 96 158 7.0 12.0 0.00 0.00 0.00 45 1014.9
20260830212524 97 149 7.0 10.0 0.00 0.00 0.00 46 1015.2
20260830212050 95 142 6.0 8.0 0.00 0.00 0.00 47 1015.3
20260830211519 96 140 7.0 11.0 0.00 0.00 0.00 46 1015.3
20260830211024 98 170 5.0 8.0 0.00 0.00 0.00 45 1015.3
20260830210552 97 220 5.0 11.0 0.00 0.00 0.00 46 1015.3
20260830210040 97 182 7.0 9.0 0.00 0.00 0.00 46 1015.5
20260830205526 97 148 8.0 10.0 0.00 0.00 0.00 45 1015.5
20260830205113 98 191 7.0 10.0 0.00 0.00 0.00 45 1015.7
20260830204520 97 200 7.0 8.0 0.00 0.00 0.00 45 1015.8
20260830204027 97 144 5.0 9.0 0.00 0.00 0.00 45 1015.8
20260830203515 96 170 7.0 10.0 0.00 0.00 0.00 46 1015.8
20260830203022 96 185 7.0 12.0 0.00 0.00 0.00 47 1015.8
20260830202529 96 189 7.0 9.0 0.00 0.00 0.00 47 1016.0
20260830202017 97 133 5.0 9.0 0.00 0.00 0.00 46 1016.0
20260830201543 96 153 6.0 10.0 0.00 0.00 0.00 48 1016.1
20260830201050 96 132 6.0 9.0 0.00 0.00 0.00 47 1016.2
20260830200518 95 164 8.0 11.0 0.00 0.00 0.00 49 1016.2
20260830200024 97 139 6.0 10.0 0.00 0.00 0.00 47 1016.4
20260830195531 96 173 5.0 9.0 0.00 0.00 0.00 48 1016.4
20260830195019 96 146 7.0 10.0 0.00 0.00 0.00 50 1016.4
20260830194526 96 184 6.0 12.0 0.00 0.00 0.00 50 1016.5
20260830194032 96 199 5.0 8.0 0.00 0.00 0.00 51 1016.5
20260830193541 95 157 7.0 9.0 0.00 0.00 0.00 51 1016.7
20260830193027 95 144 9.0 12.0 0.00 0.00 0.00 51 1016.7
20260830192515 95 147 4.0 7.0 0.00 0.00 0.00 51 1016.8
20260830192022 95 140 8.0 12.0 0.00 0.00 0.00 52 1016.9
20260830191529 95 147 5.0 9.0 0.00 0.00 0.00 52 1016.9
20260830191017 95 132 7.0 10.0 0.00 0.00 0.00 51 1017.0
20260830190544 95 127 7.0 14.0 0.00 0.00 0.00 52 1017.0
20260830190030 95 194 6.0 9.0 0.00 0.00 0.00 52 1017.2
20260830185539 94 140 5.0 7.0 0.00 0.00 0.00 53 1017.2
20260830185025 94 180 5.0 8.0 0.00 0.00 0.00 53 1017.3
20260830184532 94 162 5.0 8.0 0.00 0.00 0.00 53 1017.4
20260830184020 94 163 8.0 11.0 0.00 0.00 0.00 53 1017.4
20260830183526 94 160 6.0 9.0 0.00 0.00 0.00 53 1017.6
20260830183014 94 184 5.0 10.0 0.00 0.00 0.00 54 1017.6
20260830182521 93 175 6.0 9.0 0.00 0.00 0.00 55 1017.8
20260830182027 93 159 6.0 8.0 0.00 0.00 0.00 55 1017.8
20260830181556 93 165 7.0 10.0 0.00 0.00 0.00 55 1018.0
20260830181022 93 143 5.0 9.0 0.00 0.00 0.00 56 1018.1
20260830180549 93 133 6.0 10.0 0.00 0.00 0.00 57 1018.1
20260830180017 92 87 5.0 9.0 0.00 0.00 0.00 57 1018.4
20260830175524 93 169 7.0 11.0 0.00 0.00 0.00 57 1018.4
20260830175050 92 134 6.0 10.0 0.00 0.00 0.00 58 1018.5
20260830174538 91 178 5.0 9.0 0.00 0.00 0.00 57 1018.5
20260830174025 93 190 7.0 9.0 0.00 0.00 0.00 56 1018.6
20260830173532 93 165 6.0 8.0 0.00 0.00 0.00 56 1018.7
20260830173019 92 194 5.0 8.0 0.00 0.00 0.00 58 1018.7
20260830172607 92 151 7.0 9.0 0.00 0.00 0.00 57 1018.9
20260830172053 91 174 7.0 9.0 0.00 0.00 0.00 58 1018.9
20260830171521 91 158 6.0 8.0 0.00 0.00 0.00 58 1018.9
20260830171028 92 174 5.0 8.0 0.00 0.00 0.00 59 1018.9
20260830170516 91 184 4.0 8.0 0.00 0.00 0.00 61 1018.9
20260830170022 90 130 4.0 6.0 0.00 0.00 0.00 62 1019.1
20260830165529 90 139 7.0 9.0 0.00 0.00 0.00 62 1019.1
20260830165017 89 172 5.0 10.0 0.00 0.00 0.00 62 1019.1
20260830164524 90 148 8.0 10.0 0.00 0.00 0.00 62 1019.1
20260830164030 90 173 5.0 8.0 0.00 0.00 0.00 62 1019.1
20260830163518 90 219 4.0 8.0 0.00 0.00 0.00 63 1019.1
20260830163025 89 141 6.0 8.0 0.00 0.00 0.00 63 1019.1
20260830162531 89 196 7.0 9.0 0.00 0.00 0.00 64 1019.1
20260830162019 89 178 6.0 8.0 0.00 0.00 0.00 65 1019.1
20260830161526 89 172 5.0 8.0 0.00 0.00 0.00 66 1019.1
20260830161032 88 196 6.0 9.0 0.00 0.00 0.00 67 1019.1
20260830160526 88 215 5.0 9.0 0.00 0.00 0.00 68 1019.1
20260830160027 88 198 5.0 6.0 0.00 0.00 0.00 69 1018.9
20260830155515 87 197 5.0 9.0 0.00 0.00 0.00 69 1018.9
20260830155042 87 186 6.0 9.0 0.00 0.00 0.00 70 1018.9
20260830154529 86 185 5.0 8.0 0.00 0.00 0.00 70 1018.9
20260830154017 88 227 5.0 9.0 0.00 0.00 0.00 69 1018.9
20260830153524 88 207 5.0 8.0 0.00 0.00 0.00 69 1018.9
20260830153030 88 203 6.0 10.0 0.00 0.00 0.00 69 1018.9
20260830152518 88 224 4.0 9.0 0.00 0.00 0.00 70 1018.9
20260830152045 86 26 5.0 7.0 0.00 0.00 0.00 72 1018.9
20260830151531 85 192 7.0 10.0 0.00 0.00 0.00 73 1018.9
20260830151020 85 248 6.0 9.0 0.00 0.00 0.00 73 1018.9
20260830150526 85 207 6.0 9.0 0.00 0.00 0.00 73 1018.9
20260830150032 84 217 7.0 10.0 0.00 0.00 0.00 74 1018.7
20260830145521 84 209 8.0 13.0 0.00 0.00 0.00 75 1018.7
20260830145028 83 214 7.0 9.0 0.00 0.00 0.00 76 1018.8
20260830144516 83 199 6.0 10.0 0.00 0.00 0.00 77 1018.9
20260830144022 83 208 6.0 10.0 0.00 0.00 0.00 77 1018.9
20260830143529 83 201 7.0 9.0 0.00 0.00 0.00 78 1018.9
20260830143017 82 241 7.0 11.0 0.00 0.00 0.00 79 1018.9
20260830142523 82 193 7.0 10.0 0.00 0.00 0.00 79 1018.9
20260830142110 81 217 6.0 11.0 0.00 0.00 0.00 81 1018.9
20260830141518 81 197 7.0 9.0 0.00 0.00 0.00 81 1018.8
20260830141025 81 201 6.0 9.0 0.00 0.00 0.00 81 1018.6
20260830140531 80 184 6.0 9.0 0.00 0.00 0.00 83 1018.6
20260830140020 80 202 6.0 9.0 0.00 0.00 0.00 83 1018.6
20260830135526 80 203 5.0 7.0 0.00 0.00 0.00 83 1018.6
20260830135032 80 203 6.0 10.0 0.00 0.00 0.00 83 1018.6
20260830134520 79 203 5.0 9.0 0.00 0.00 0.00 85 1018.5
20260830134027 79 178 6.0 8.0 0.00 0.00 0.00 85 1018.5
20260830133515 79 197 4.0 8.0 0.00 0.00 0.00 86 1018.4
20260830133022 77 186 5.0 7.0 0.00 0.00 0.00 88 1018.4
20260830132548 77 168 5.0 7.0 0.00 0.00 0.00 88 1018.4
20260830132017 77 179 5.0 7.0 0.00 0.00 0.00 88 1018.4
20260830131523 77 189 4.0 6.0 0.00 0.00 0.00 89 1018.4
20260830131030 77 173 4.0 6.0 0.00 0.00 0.00 89 1018.4
20260830130558 76 198 2.0 4.0 0.00 0.00 0.00 91 1018.3
20260830130045 75 192 4.0 5.0 0.00 0.00 0.00 92 1018.2
20260830125531 74 184 3.0 5.0 0.00 0.00 0.00 93 1018.2
20260830125019 74 187 3.0 4.0 0.00 0.00 0.00 95 1018.1
20260830124526 73 187 1.0 3.0 0.00 0.00 0.00 95 1018.0
20260830124032 73 182 3.0 4.0 0.00 0.00 0.00 95 1018.0
20260830123521 73 199 3.0 4.0 0.00 0.00 0.00 95 1017.9
20260830123027 73 184 3.0 4.0 0.00 0.00 0.00 95 1017.9
20260830122515 73 183 3.0 5.0 0.00 0.00 0.00 95 1017.8
20260830122022 73 167 3.0 6.0 0.00 0.00 0.00 95 1017.8
20260830121528 73 201 3.0 5.0 0.00 0.00 0.00 95 1017.8
20260830121016 73 193 4.0 7.0 0.00 0.00 0.00 94 1017.8
20260830120523 73 179 3.0 4.0 0.00 0.00 0.00 94 1017.8
20260830120030 73 193 3.0 4.0 0.00 0.00 0.00 94 1017.6
20260830115538 73 189 4.0 6.0 0.00 0.00 0.00 94 1017.6
20260830115025 73 173 4.0 7.0 0.00 0.00 0.00 94 1017.6
20260830114531 73 201 3.0 5.0 0.00 0.00 0.00 93 1017.6
20260830114019 73 191 3.0 5.0 0.00 0.00 0.00 93 1017.6
20260830113526 73 187 4.0 6.0 0.00 0.00 0.00 92 1017.6
20260830113032 73 194 4.0 5.0 0.00 0.00 0.00 92 1017.6
20260830112521 73 187 4.0 6.0 0.00 0.00 0.00 92 1017.4
20260830112027 73 177 3.0 7.0 0.00 0.00 0.00 91 1017.4
20260830111515 73 169 4.0 5.0 0.00 0.00 0.00 91 1017.4
20260830111102 74 178 3.0 5.0 0.00 0.00 0.00 91 1017.4
20260830110529 74 177 3.0 4.0 0.00 0.00 0.00 90 1017.4
20260830110017 74 189 3.0 7.0 0.00 0.00 0.00 90 1017.3
20260830105523 74 195 3.0 4.0 0.00 0.00 0.00 90 1017.3
20260830105030 74 197 4.0 7.0 0.00 0.00 0.00 89 1017.3
20260830104539 74 196 3.0 7.0 0.00 0.00 0.00 89 1017.3
20260830104045 74 204 4.0 7.0 0.00 0.00 0.00 89 1017.3
20260830103551 74 192 4.0 6.0 0.00 0.00 0.00 89 1017.2
20260830103019 74 195 4.0 6.0 0.00 0.00 0.00 88 1017.2
20260830102526 74 184 4.0 7.0 0.00 0.00 0.00 88 1017.2
20260830102032 74 212 4.0 7.0 0.00 0.00 0.00 88 1017.2
20260830101520 74 189 4.0 7.0 0.00 0.00 0.00 88 1017.3
20260830101027 75 204 4.0 6.0 0.00 0.00 0.00 87 1017.3
20260830100515 75 191 4.0 6.0 0.00 0.00 0.00 87 1017.3
20260830100022 75 191 4.0 6.0 0.00 0.00 0.00 87 1017.2
20260830095528 75 228 4.0 6.0 0.00 0.00 0.00 86 1017.2
20260830095017 75 212 4.0 6.0 0.00 0.00 0.00 86 1017.2
20260830094523 75 210 5.0 8.0 0.00 0.00 0.00 85 1017.2
20260830094030 75 205 4.0 6.0 0.00 0.00 0.00 85 1017.2
20260830093518 75 202 4.0 6.0 0.00 0.00 0.00 85 1017.2
20260830093044 75 183 4.0 5.0 0.00 0.00 0.00 84 1017.2
20260830092531 75 194 4.0 6.0 0.00 0.00 0.00 84 1017.2
20260830092019 75 190 4.0 6.0 0.00 0.00 0.00 84 1017.2
20260830091526 76 220 3.0 6.0 0.00 0.00 0.00 84 1017.2
20260830091032 76 207 5.0 6.0 0.00 0.00 0.00 83 1017.2
20260830090520 76 189 5.0 7.0 0.00 0.00 0.00 83 1017.2
20260830090107 76 184 4.0 8.0 0.00 0.00 0.00 83 1017.3
20260830085515 76 211 5.0 7.0 0.00 0.00 0.00 83 1017.3
20260830085022 76 203 3.0 5.0 0.00 0.00 0.00 83 1017.3
20260830084528 76 197 4.0 7.0 0.00 0.00 0.00 83 1017.3
20260830084017 76 187 3.0 4.0 0.00 0.00 0.00 83 1017.3
20260830083523 76 203 3.0 4.0 0.00 0.00 0.00 82 1017.4
20260830083030 76 187 5.0 6.0 0.00 0.00 0.00 82 1017.4
20260830082518 76 176 4.0 6.0 0.00 0.00 0.00 82 1017.4
20260830082025 77 189 4.0 7.0 0.00 0.00 0.00 81 1017.4
20260830081531 77 188 5.0 7.0 0.00 0.00 0.00 81 1017.4
20260830081019 77 174 4.0 6.0 0.00 0.00 0.00 81 1017.4
20260830080526 77 224 5.0 7.0 0.00 0.00 0.00 81 1017.4
20260830080032 77 208 4.0 6.0 0.00 0.00 0.00 80 1017.6
20260830075520 77 198 5.0 8.0 0.00 0.00 0.00 80 1017.6
20260830075047 77 211 4.0 7.0 0.00 0.00 0.00 80 1017.6
20260830074515 78 181 4.0 5.0 0.00 0.00 0.00 80 1017.6
20260830074042 78 163 3.0 4.0 0.00 0.00 0.00 80 1017.6
20260830073529 78 194 4.0 6.0 0.00 0.00 0.00 80 1017.7
20260830073016 78 151 4.0 6.0 0.00 0.00 0.00 79 1017.7
20260830072603 78 175 5.0 6.0 0.00 0.00 0.00 79 1017.5
20260830072030 78 184 4.0 5.0 0.00 0.00 0.00 79 1017.5
20260830071518 78 197 4.0 6.0 0.00 0.00 0.00 79 1017.6
20260830071044 78 175 4.0 6.0 0.00 0.00 0.00 78 1017.7
20260830070531 79 193 5.0 7.0 0.00 0.00 0.00 78 1017.7
20260830070019 79 195 4.0 6.0 0.00 0.00 0.00 78 1017.6
20260830065526 79 181 4.0 5.0 0.00 0.00 0.00 78 1017.6
20260830065113 79 173 3.0 5.0 0.00 0.00 0.00 78 1017.6
20260830064520 79 185 4.0 6.0 0.00 0.00 0.00 77 1017.6
20260830064027 79 187 4.0 7.0 0.00 0.00 0.00 77 1017.6
20260830063515 80 171 5.0 7.0 0.00 0.00 0.00 76 1017.6
20260830063022 80 178 4.0 6.0 0.00 0.00 0.00 76 1017.6
20260830062529 80 197 5.0 7.0 0.00 0.00 0.00 76 1017.6
20260830062017 80 175 5.0 8.0 0.00 0.00 0.00 75 1017.6
20260830061543 80 204 5.0 7.0 0.00 0.00 0.00 75 1017.6
20260830061030 80 215 5.0 7.0 0.00 0.00 0.00 75 1017.6
20260830060518 80 188 4.0 7.0 0.00 0.00 0.00 75 1017.6
20260830060045 81 183 5.0 7.0 0.00 0.00 0.00 74 1017.6
20260830055531 81 175 5.0 8.0 0.00 0.00 0.00 74 1017.6
20260830055019 81 181 4.0 7.0 0.00 0.00 0.00 74 1017.5
20260830054546 81 179 5.0 7.0 0.00 0.00 0.00 74 1017.5
20260830054032 81 189 6.0 8.0 0.00 0.00 0.00 73 1017.5
20260830053521 81 183 5.0 7.0 0.00 0.00 0.00 73 1017.5
20260830053027 82 166 5.0 7.0 0.00 0.00 0.00 73 1017.5
20260830052515 82 165 5.0 7.0 0.00 0.00 0.00 73 1017.5
20260830052022 82 165 5.0 8.0 0.00 0.00 0.00 72 1017.5
20260830051609 82 178 6.0 8.0 0.00 0.00 0.00 72 1017.5
20260830051137 82 172 6.0 8.0 0.00 0.00 0.00 72 1017.4
20260830050603 82 174 6.0 9.0 0.00 0.00 0.00 71 1017.4
20260830050030 82 207 5.0 10.0 0.00 0.00 0.00 71 1017.5
20260830045518 83 198 6.0 8.0 0.00 0.00 0.00 71 1017.5
20260830045024 83 156 5.0 8.0 0.00 0.00 0.00 71 1017.4
20260830044531 83 218 5.0 6.0 0.00 0.00 0.00 71 1017.4
20260830044019 83 212 4.0 7.0 0.00 0.00 0.00 71 1017.4
20260830043526 83 168 5.0 7.0 0.00 0.00 0.00 70 1017.4
20260830043032 84 179 5.0 8.0 0.00 0.00 0.00 70 1017.4
20260830042520 84 193 5.0 8.0 0.00 0.00 0.00 70 1017.5
20260830042027 84 173 6.0 8.0 0.00 0.00 0.00 69 1017.5
20260830041535 84 181 5.0 7.0 0.00 0.00 0.00 69 1017.5
20260830041022 84 170 8.0 12.0 0.00 0.00 0.00 68 1017.5
20260830040528 84 158 7.0 10.0 0.00 0.00 0.00 68 1017.5
20260830040017 85 162 5.0 7.0 0.00 0.00 0.00 67 1017.4
20260830035523 85 154 6.0 9.0 0.00 0.00 0.00 66 1017.4
20260830035029 85 166 5.0 7.0 0.00 0.00 0.00 65 1017.4
20260830034518 85 172 6.0 10.0 0.00 0.00 0.00 65 1017.4
20260830034024 85 164 6.0 10.0 0.00 0.00 0.00 64 1017.3
20260830033531 86 141 5.0 9.0 0.00 0.00 0.00 62 1017.2
20260830033019 86 151 5.0 7.0 0.00 0.00 0.00 60 1017.2
20260830032525 86 166 6.0 11.0 0.00 0.00 0.00 59 1017.1
20260830032052 86 157 5.0 6.0 0.00 0.00 0.00 58 1017.1
20260830031520 86 149 6.0 8.0 0.00 0.00 0.00 58 1017.0
20260830031027 86 150 6.0 8.0 0.00 0.00 0.00 57 1017.0
20260830030515 86 155 5.0 6.0 0.00 0.00 0.00 57 1017.0
20260830030021 87 146 5.0 6.0 0.00 0.00 0.00 56 1016.9
20260830025548 87 153 4.0 6.0 0.00 0.00 0.00 56 1016.9
20260830025016 87 144 4.0 7.0 0.00 0.00 0.00 56 1016.8
20260830024523 87 149 4.0 5.0 0.00 0.00 0.00 55 1016.8
20260830024049 87 147 3.0 5.0 0.00 0.00 0.00 55 1016.7
20260830023517 87 144 3.0 5.0 0.00 0.00 0.00 55 1016.5
20260830023024 87 149 3.0 5.0 0.00 0.00 0.00 55 1016.5
20260830022551 87 154 3.0 5.0 0.00 0.00 0.00 54 1016.3
20260830022019 87 129 3.0 4.0 0.00 0.00 0.00 54 1016.3
20260830021525 87 126 3.0 4.0 0.00 0.00 0.00 54 1016.2
20260830021032 88 151 3.0 3.0 0.00 0.00 0.00 54 1016.0
20260830020540 88 149 3.0 4.0 0.00 0.00 0.00 54 1016.0
20260830020026 88 168 3.0 5.0 0.00 0.00 0.00 54 1016.0
20260830015555 88 138 3.0 4.0 0.00 0.00 0.00 54 1016.0
20260830015021 88 134 3.0 3.0 0.00 0.00 0.00 54 1015.8
20260830014528 88 132 2.0 4.0 0.00 0.00 0.00 54 1015.8
20260830014016 89 143 2.0 3.0 0.00 0.00 0.00 53 1015.7
20260830013523 89 137 2.0 3.0 0.00 0.00 0.00 53 1015.6
20260830013030 89 132 1.0 3.0 0.00 0.00 0.00 53 1015.6
20260830012517 89 146 2.0 3.0 0.00 0.00 0.00 52 1015.5
20260830012024 89 154 2.0 4.0 0.00 0.00 0.00 52 1015.5
20260830011531 90 156 3.0 4.0 0.00 0.00 0.00 51 1015.5
20260830011019 90 137 3.0 6.0 0.00 0.00 0.00 51 1015.5
20260830010545 90 131 3.0 5.0 0.00 0.00 0.00 51 1015.5
20260830010032 91 121 3.0 4.0 0.00 0.00 0.00 50 1015.6